Wind_Speed
44 44 43 42 41 41 40 39 38 37 37 37 37 38 38 39 40 40 40 41 41 39 35 35 36 36 38 40 42 46 47 46 41 39 42 40 35 31 15 13 21 22 25 25 30 40 43 39 38 40 46 49 48 48 48 48 45 44 45 45 45 44 42 40 39 38 39 39 40 41 41 42 42 42 42 43 42 42 42 41 41 42 43 43 44
44 44 43 41 41 40 39 38 37 37 37 37 37 37 38 39 39 39 39 40 41 39 34 33 35 34 35 37 40 42 44 43 38 33 35 34 32 28 11 11 17 19 21 22 30 37 34 31 36 40 43 45 45 43 41 41 41 43 43 43 43 42 40 39 39 39 39 39 40 41 41 41 42 42 42 42 41 41 41 41 41 41 41 41 42
44 43 42 40 40 39 38 37 37 37 37 37 37 37 37 38 38 38 38 39 40 39 34 32 33 33 32 34 37 39 41 40 35 28 27 25 24 23 11 6 15 19 21 21 25 27 26 31 37 38 38 41 42 40 37 38 40 41 42 42 42 41 39 39 39 39 39 39 40 40 41 41 41 41 41 41 40 41 41 41 41 40 40 40 42
44 42 41 40 39 39 38 38 37 37 37 37 37 37 37 37 38 37 37 38 39 38 34 31 32 32 31 32 33 35 37 37 32 25 20 15 12 11 5 10 18 22 21 18 19 24 29 34 36 35 35 37 38 38 36 37 39 41 42 41 41 40 39 38 39 39 39 39 39 39 40 40 40 39 40 40 40 39 40 40 39 39 40 42 43
44 43 41 41 40 39 39 38 37 37 37 37 37 37 37 37 38 37 36 37 38 38 35 31 30 31 30 30 30 31 33 34 30 24 16 8 4 3 5 13 20 23 23 22 22 25 30 34 33 31 32 36 37 36 36 38 39 40 40 39 39 39 37 37 38 38 38 38 38 37 38 38 38 38 39 39 38 37 37 38 39 42 46 46 44
45 44 42 41 41 40 40 39 39 38 38 38 37 37 37 37 38 37 36 36 37 37 34 31 30 30 29 28 28 28 29 30 28 23 16 9 9 12 13 16 21 25 28 29 28 28 29 31 31 31 33 37 37 35 36 38 38 37 36 35 35 35 35 36 37 37 37 36 36 35 36 36 36 37 37 36 36 36 37 40 44 48 49 47 44
46 45 44 43 42 42 41 41 40 39 39 39 38 37 37 38 38 37 36 35 35 35 34 31 29 29 29 27 27 27 26 27 26 22 17 14 13 17 20 20 22 26 29 30 28 28 29 30 31 33 36 38 36 34 35 36 35 33 31 31 31 32 33 35 35 35 35 34 33 33 33 34 35 36 36 36 36 39 41 45 48 49 47 45 44
48 47 46 45 44 44 43 42 41 40 39 39 39 38 38 38 38 37 36 35 34 33 32 30 28 28 29 27 26 26 25 24 25 22 17 16 16 18 22 23 24 25 27 27 25 25 27 31 33 35 37 37 36 35 35 35 34 32 29 29 29 30 32 33 33 33 33 33 32 31 32 34 36 37 38 38 39 41 43 44 45 45 44 42 42
50 49 48 47 46 45 43 42 41 41 40 40 40 39 38 38 38 37 37 35 33 32 31 29 27 27 29 28 25 25 24 23 23 23 19 14 16 19 21 23 24 25 26 26 25 24 26 31 35 37 37 37 36 36 35 34 33 31 29 29 29 30 30 30 30 31 31 31 30 31 32 35 37 39 39 39 38 37 37 37 37 39 40 41 43
51 50 49 48 47 46 44 43 42 42 42 41 41 40 39 39 38 38 37 35 34 32 30 28 27 26 27 27 26 25 24 23 22 22 21 16 12 17 21 24 26 27 28 29 28 27 27 31 35 37 36 37 36 35 34 33 33 32 31 31 32 32 31 29 29 29 29 29 31 32 34 35 35 35 34 34 34 34 34 36 37 39 41 44 46
52 51 50 49 48 47 46 45 44 44 43 43 42 41 40 39 39 38 37 36 34 32 30 28 26 25 26 27 26 24 23 23 21 21 22 20 14 12 17 22 26 28 29 31 31 30 31 33 35 35 35 36 36 35 35 34 35 34 33 33 34 33 30 28 28 28 29 31 31 31 30 29 29 30 30 32 34 34 36 37 39 41 44 46 48
53 52 51 50 49 48 48 47 47 46 46 44 43 42 40 40 39 38 38 37 35 33 31 29 26 25 25 26 26 24 23 22 21 20 20 20 18 15 14 18 23 27 29 32 33 34 35 36 36 36 36 36 36 37 38 37 37 36 35 35 34 31 28 27 28 28 28 28 26 25 25 26 28 29 31 33 35 37 38 40 41 44 46 48 50
54 52 51 50 49 49 49 49 49 49 48 46 43 42 40 39 39 38 38 37 36 34 33 30 27 25 25 25 26 25 23 22 21 20 19 19 18 17 15 17 21 25 29 32 34 36 37 37 36 36 37 36 37 37 37 37 36 36 35 33 30 28 26 26 25 24 24 23 23 24 26 28 30 31 33 35 37 39 41 43 45 46 48 49 51
54 53 52 50 50 50 50 51 52 51 49 47 45 43 41 39 38 38 38 38 37 36 34 32 29 26 25 25 26 25 24 23 21 20 19 18 17 16 15 16 19 23 26 28 30 31 31 32 33 33 34 35 34 33 33 34 34 34 32 29 27 25 24 23 22 22 23 23 24 26 28 30 31 34 36 37 40 42 43 45 46 47 47 49 50
55 54 53 52 51 52 52 53 54 53 51 49 47 44 43 41 39 39 39 39 39 38 36 34 32 29 26 26 26 26 26 25 23 21 20 19 18 16 15 16 18 21 24 25 26 27 28 29 30 31 32 32 31 31 32 33 33 32 29 26 24 23 22 22 23 24 25 25 26 28 30 32 34 36 38 40 42 43 44 45 46 46 46 48 50
57 56 55 53 54 54 55 56 56 55 53 51 49 48 46 44 42 41 40 41 41 40 38 36 34 31 28 26 27 27 27 27 25 24 22 21 20 18 17 16 17 19 21 23 25 25 25 25 25 26 26 27 27 27 28 29 29 28 26 24 23 23 23 25 25 25 26 27 28 30 32 34 36 38 40 42 43 44 45 44 45 46 47 48 50
60 58 56 56 57 57 57 58 58 57 55 54 53 51 49 47 45 43 42 42 42 41 40 38 36 33 31 28 28 28 28 28 28 27 25 23 22 21 20 19 18 18 19 20 22 23 23 23 23 23 24 24 25 25 25 25 25 24 24 24 24 24 26 27 27 27 28 29 31 32 34 36 38 39 41 43 44 45 44 43 45 47 48 49 50
62 60 59 59 59 59 60 60 60 59 58 57 56 55 53 50 47 45 45 44 43 43 42 40 38 36 33 31 29 29 29 29 30 29 28 27 26 24 23 22 21 20 20 20 20 21 22 22 23 23 23 24 24 24 24 24 24 24 24 25 25 26 28 28 29 29 30 31 33 35 36 38 39 41 42 44 44 44 43 43 45 47 48 49 50
64 63 62 62 62 62 62 62 61 61 60 60 59 58 56 53 50 49 47 45 44 44 43 42 40 38 36 34 32 31 30 30 31 31 31 31 29 28 27 26 24 23 23 23 23 23 23 23 23 24 24 24 25 25 25 25 26 26 27 27 28 29 30 30 30 31 32 34 35 37 38 39 40 41 43 43 43 42 43 44 46 47 47 48 50
67 66 65 65 65 64 64 64 63 63 63 63 62 61 59 56 54 52 50 47 46 45 45 44 42 40 38 36 34 33 32 32 32 32 33 33 33 32 30 29 28 27 27 26 26 26 26 26 26 26 27 27 27 28 28 28 28 29 29 30 30 30 30 31 32 33 35 36 37 38 39 40 41 42 42 42 41 41 42 44 46 47 47 48 49
70 69 68 68 67 67 66 66 66 66 66 66 65 64 61 58 56 54 53 51 48 46 45 44 43 41 39 38 37 35 34 34 33 34 34 35 36 36 35 33 32 31 30 30 29 29 29 29 29 30 30 30 30 30 30 30 30 30 31 31 31 32 32 33 34 36 37 38 39 39 40 41 42 42 42 41 40 41 42 44 45 46 47 47 48
72 71 70 69 69 69 68 68 67 68 69 69 67 66 64 61 58 56 55 54 52 49 46 44 43 42 40 39 39 38 36 36 35 35 36 37 37 38 38 37 35 34 33 33 32 32 32 32 32 32 32 32 32 32 31 31 31 32 32 33 33 34 35 36 37 38 39 39 40 41 42 43 42 42 41 40 40 41 43 44 44 45 45 46 47
71 71 70 70 70 70 69 69 68 69 70 70 69 67 66 63 60 59 58 56 55 53 49 45 43 42 41 40 40 40 39 38 37 37 37 38 39 40 40 40 39 37 36 35 35 35 35 35 35 35 35 34 34 34 34 33 34 35 35 36 36 37 37 38 39 40 40 40 41 42 43 43 43 42 40 39 40 41 43 43 43 44 44 45 46
70 69 69 69 70 69 69 69 69 69 70 70 69 68 67 65 62 60 59 57 56 55 52 48 44 43 42 40 40 41 41 40 39 39 39 39 40 41 42 43 42 41 39 38 38 38 38 38 39 38 37 37 37 37 37 37 37 38 38 39 39 39 40 41 41 41 41 41 42 43 44 43 42 41 40 39 40 42 42 42 42 42 43 44 45
70 70 70 70 69 69 68 68 68 69 70 70 69 68 67 65 63 61 60 58 56 55 54 50 46 44 43 41 41 41 41 41 40 40 40 40 41 42 43 44 44 44 43 42 41 41 41 41 41 41 40 40 40 40 40 40 40 40 41 41 41 41 41 42 42 42 42 42 43 44 44 43 42 40 39 39 40 41 41 40 40 41 42 42 44
71 71 71 71 70 70 69 68 68 68 68 69 69 68 67 65 64 62 61 59 57 56 54 51 48 46 44 42 42 41 41 41 42 42 41 41 42 43 44 45 46 46 46 45 44 44 44 44 44 43 43 42 42 42 41 42 42 42 42 43 42 42 42 43 43 43 42 42 43 43 43 42 41 39 38 39 41 41 40 38 38 39 40 40 42
73 73 72 72 71 70 69 68 67 67 67 68 68 68 67 66 65 63 61 59 56 54 53 51 48 46 45 44 43 42 42 42 43 43 43 43 43 44 45 46 47 47 47 48 48 48 48 47 47 46 45 44 44 43 43 44 44 44 44 44 44 43 43 44 44 43 43 43 43 44 43 41 39 38 38 39 40 40 37 36 36 37 37 38 40
75 75 74 74 73 71 70 69 68 67 66 66 67 67 67 66 65 63 61 58 55 53 52 51 50 48 47 46 44 44 43 43 44 44 44 44 45 45 45 46 47 47 48 49 50 50 51 51 50 49 48 46 46 45 46 46 46 46 46 45 45 44 44 45 45 44 43 43 44 44 42 40 38 38 38 39 39 38 35 33 34 35 35 36 37
74 74 75 74 73 71 69 68 67 66 65 64 64 65 65 65 64 63 61 58 56 54 53 53 52 50 48 47 45 45 45 45 45 45 46 46 47 47 47 47 47 47 48 49 50 51 52 52 52 52 51 50 49 48 48 49 49 48 48 47 46 45 46 46 46 44 43 43 44 43 40 38 37 37 37 38 38 37 34 32 33 33 33 33 34
72 72 72 72 71 69 67 65 64 63 62 61 61 62 63 64 63 62 60 58 56 54 54 53 51 49 48 47 46 45 46 46 46 47 47 48 49 49 49 49 48 48 49 49 50 50 52 53 53 53 53 53 52 52 52 52 51 51 50 49 48 47 47 47 46 44 43 43 43 41 39 37 37 37 37 37 37 35 33 32 32 31 30 31 32
68 69 69 69 68 66 65 63 62 61 60 59 60 61 62 62 62 61 59 57 55 54 53 53 52 49 47 46 46 45 46 46 47 48 49 50 51 51 51 51 50 49 49 49 49 50 51 52 52 53 53 53 53 53 54 53 53 52 51 50 49 48 48 47 45 44 43 43 41 40 38 36 36 37 37 37 37 34 32 32 31 30 29 30 31
66 66 67 67 67 65 64 62 61 60 59 58 59 60 61 61 61 60 58 56 55 53 54 54 53 51 48 46 46 46 46 47 47 48 49 51 52 53 53 53 52 51 50 50 49 49 50 50 51 51 52 52 53 54 54 54 53 52 51 49 49 48 48 47 45 44 43 42 40 38 37 36 36 36 36 37 36 34 32 32 30 28 28 29 30
68 67 66 66 65 65 64 62 60 60 59 58 58 59 59 60 60 59 58 56 55 54 54 55 55 53 49 47 46 47 47 48 48 49 50 51 52 53 54 53 53 52 52 51 50 50 49 50 50 51 51 52 53 54 54 54 53 52 50 49 49 48 47 46 45 44 43 41 39 37 36 36 36 35 35 36 35 33 31 31 30 28 27 28 30
72 71 70 68 66 65 63 62 61 60 59 59 59 59 59 59 59 59 58 56 55 55 55 55 55 54 50 48 47 47 48 49 49 50 51 52 53 53 54 54 54 53 53 52 52 51 51 50 50 51 51 52 52 53 54 54 53 51 50 49 49 48 47 46 45 44 44 41 39 37 37 36 36 35 34 34 34 32 31 31 29 27 26 28 30
69 71 72 72 71 69 66 64 61 60 59 58 59 59 59 59 58 58 57 56 55 55 56 56 56 55 52 50 49 49 49 50 51 52 53 53 53 54 54 54 55 54 54 54 54 54 53 53 52 52 52 52 53 53 54 54 52 51 50 50 49 48 46 46 45 45 44 41 38 37 37 37 36 34 33 33 32 31 30 30 29 26 25 27 30
64 66 69 71 72 72 71 68 65 62 60 58 58 58 59 59 58 57 57 57 56 57 57 58 58 57 55 53 51 51 51 51 52 53 54 54 54 54 55 55 56 56 56 56 56 56 56 55 55 54 53 53 54 54 54 53 52 51 50 49 48 47 46 46 46 45 44 41 39 38 38 37 36 34 32 31 31 30 29 29 28 26 25 27 30
61 62 65 67 69 70 71 71 70 68 65 62 60 58 58 58 58 58 58 58 58 58 59 59 59 58 57 55 53 52 52 53 54 55 55 55 55 55 56 57 57 56 57 57 58 58 57 57 56 56 55 55 55 55 54 54 52 51 50 49 48 47 47 47 46 46 44 41 40 40 39 38 36 33 31 30 30 29 28 28 27 25 25 27 29
59 60 61 64 66 67 68 69 70 70 70 68 64 61 59 58 57 57 58 58 58 58 59 59 59 58 57 56 54 54 54 55 55 56 56 56 56 56 56 56 56 56 57 58 58 58 58 57 57 57 56 56 56 55 55 54 53 52 51 50 49 48 48 47 47 46 44 42 42 41 39 38 36 34 31 31 30 29 28 28 27 25 25 26 28
57 58 59 60 62 64 65 66 67 69 70 70 69 65 61 58 57 56 57 57 57 58 58 58 58 57 57 57 56 56 56 56 57 58 58 57 57 57 56 55 55 55 57 57 58 58 58 58 57 57 57 56 56 56 55 55 54 52 51 51 50 49 48 47 46 46 44 44 43 42 40 38 36 34 33 32 31 29 29 28 27 26 26 26 26
57 56 57 58 59 61 63 65 65 66 68 69 70 68 65 61 57 56 56 56 57 57 57 57 56 56 57 58 58 58 58 59 60 60 59 59 58 57 56 55 54 55 55 56 56 56 57 57 57 57 57 57 56 56 56 55 54 53 52 51 50 49 48 47 46 46 46 45 44 43 41 39 37 35 35 34 32 30 30 29 28 27 27 26 25
56 56 55 56 58 60 61 63 64 65 66 67 68 69 68 65 61 58 56 56 56 56 56 56 56 57 58 59 60 60 60 61 61 61 61 60 59 58 56 55 55 55 55 54 54 55 56 56 56 56 56 56 56 56 56 55 54 53 53 52 50 49 48 47 47 47 47 47 46 44 42 40 38 37 36 35 33 32 31 30 28 28 27 26 25
53 53 53 54 56 58 60 61 62 63 64 65 66 67 68 67 66 62 59 57 56 56 57 57 58 58 59 59 60 61 61 62 63 62 61 60 59 58 57 56 56 55 55 54 54 54 55 55 55 55 56 56 56 56 55 55 54 54 53 51 50 50 49 48 48 48 48 47 47 45 42 40 39 38 37 36 35 34 33 31 29 28 28 27 26
51 51 51 52 54 56 58 60 61 62 63 64 65 65 65 65 66 65 63 61 59 59 59 59 60 59 59 59 60 61 61 63 63 63 62 62 61 59 58 57 57 56 56 55 55 55 55 55 55 55 55 54 54 54 54 54 54 53 52 51 50 50 49 49 49 50 49 48 47 45 42 41 39 38 36 35 35 35 34 33 31 29 29 29 29
51 50 50 51 52 53 55 57 59 60 61 62 63 64 65 64 64 64 64 63 62 62 61 61 61 61 60 60 60 61 62 63 64 64 64 63 62 61 60 59 58 58 57 57 57 57 56 55 54 54 54 54 53 53 53 53 53 53 52 51 50 50 49 49 50 51 50 48 46 45 43 41 40 38 37 35 34 34 34 33 31 30 30 31 32
51 50 51 51 51 51 52 54 55 57 59 60 61 62 63 64 64 64 63 63 62 62 62 62 62 62 61 61 61 62 62 63 63 63 63 63 62 61 60 60 59 59 59 59 58 58 58 56 55 55 54 54 54 53 53 53 53 52 51 51 50 50 49 49 51 51 50 48 46 45 44 42 41 39 38 36 35 34 34 33 32 31 31 32 33
52 51 52 52 51 50 50 51 53 54 56 58 59 60 61 61 63 64 65 64 63 62 62 62 61 61 61 62 62 63 62 62 62 62 62 61 61 60 60 59 59 59 59 59 59 59 58 58 57 56 55 55 54 54 53 53 52 52 52 51 50 50 49 49 50 50 49 47 47 46 45 43 42 40 39 37 36 35 35 33 32 31 32 32 33
52 52 52 53 52 50 49 50 51 52 53 55 57 58 59 59 60 61 63 64 65 64 63 62 60 59 59 60 62 62 62 62 62 61 61 60 59 59 58 58 58 59 59 59 59 59 59 58 57 56 56 55 54 54 53 53 52 52 52 52 51 50 50 49 50 49 49 48 47 46 45 44 43 42 40 38 37 37 36 34 33 31 31 32 32
54 53 53 53 52 50 49 49 49 50 50 52 54 56 57 58 58 59 60 61 63 65 65 64 61 58 57 58 59 60 61 62 62 61 60 59 58 57 57 57 57 58 58 58 58 58 58 57 57 56 56 55 54 53 53 53 52 52 53 52 52 50 50 50 50 50 49 49 48 47 46 46 45 43 41 40 40 39 37 36 34 32 31 31 31
56 55 54 54 53 51 50 50 49 48 48 48 49 50 53 55 56 57 56 56 57 58 59 60 59 57 56 57 58 58 59 60 60 60 59 57 56 55 55 55 55 56 55 55 55 55 55 56 56 56 55 54 54 53 53 53 53 53 53 53 52 51 50 51 50 50 50 50 48 47 47 46 45 44 43 42 42 41 40 38 36 34 32 31 31
58 57 56 56 54 52 51 50 50 49 49 48 46 46 48 50 52 53 52 51 51 51 52 53 53 54 56 58 59 59 60 60 58 58 57 55 53 52 52 52 53 54 54 54 54 53 54 54 54 54 54 53 53 53 53 53 52 52 52 52 52 51 51 51 51 51 51 51 49 48 47 47 46 45 45 45 44 43 41 39 37 35 33 32 31
62 60 58 57 56 55 53 51 50 50 50 49 48 47 47 48 50 51 51 49 49 49 50 50 51 54 56 58 60 62 64 63 61 59 58 56 53 51 50 50 51 52 52 53 53 52 52 52 52 52 52 51 50 50 50 50 50 50 50 51 51 51 51 52 52 52 51 50 49 48 47 46 46 46 46 46 45 44 42 40 38 36 34 33 32
Wind_Direction
248 249 250 251 252 253 255 257 259 261 264 267 270 273 276 279 283 287 291 294 297 302 305 307 310 312 315 320 324 327 326 323 327 333 330 331 341 347 332 221 211 208 203 204 199 193 189 187 190 200 208 209 213 219 223 224 226 229 232 235 236 237 238 240 242 242 244 247 250 254 256 259 262 264 266 267 270 272 273 274 276 278 281 282 285
247 248 249 250 251 253 254 257 259 261 263 266 268 271 274 278 282 286 290 293 296 300 305 306 309 311 314 319 324 327 328 325 327 334 333 334 347 353 344 204 203 198 192 189 183 183 187 190 193 199 205 209 213 219 224 227 228 230 233 236 236 236 237 239 242 243 245 248 252 255 258 261 263 265 267 269 271 273 275 276 277 280 283 285 288
247 248 249 250 252 253 255 257 259 260 263 265 267 270 273 277 281 285 289 293 296 299 304 306 308 310 313 318 323 327 329 327 326 332 336 338 347 356 4 178 184 177 171 169 174 183 191 194 197 203 208 211 216 223 228 230 230 232 234 235 235 236 238 241 243 245 248 250 253 257 259 262 264 266 269 271 273 274 275 277 279 282 284 286 287
247 249 250 251 252 254 255 256 258 260 262 264 266 268 272 276 280 285 289 293 295 298 302 305 306 308 311 316 321 327 330 329 325 325 332 337 342 359 40 148 164 169 172 171 174 184 190 194 202 210 212 214 220 226 228 229 229 231 233 233 235 238 240 242 245 248 250 252 255 258 261 263 266 269 271 271 272 274 276 278 281 283 285 287 290
248 249 250 251 252 253 254 256 257 259 261 263 265 267 271 274 279 284 288 292 294 297 300 303 305 307 309 313 318 325 329 330 326 319 317 316 283 242 185 178 181 183 183 180 179 188 194 200 207 211 213 217 223 227 227 227 228 230 232 234 235 239 242 244 248 250 252 254 256 260 263 266 268 269 269 270 273 276 279 282 285 287 287 288 291
248 249 250 251 251 252 254 255 257 259 260 262 263 266 269 273 278 283 287 290 293 295 298 301 303 304 307 310 315 321 327 331 329 318 303 279 232 221 217 208 202 197 189 185 189 199 205 207 211 214 215 217 222 226 227 228 229 230 233 235 238 243 247 248 251 252 254 257 259 261 264 264 265 267 271 275 280 284 286 287 288 288 287 286 289
248 249 250 251 251 252 254 255 256 258 259 260 262 265 268 272 276 281 285 288 290 292 295 299 301 302 304 307 311 317 323 328 331 323 302 274 239 225 225 221 213 206 201 199 202 209 212 211 213 215 215 217 222 227 228 229 231 232 236 240 245 248 251 252 254 256 257 258 258 260 264 266 268 273 278 282 285 288 288 286 285 285 285 286 288
248 249 250 251 252 252 253 254 255 257 258 259 261 264 267 271 275 279 283 285 286 289 291 295 298 299 301 304 306 311 318 323 328 329 312 278 250 235 231 230 226 219 216 216 219 221 219 215 214 215 217 220 225 229 230 232 235 238 242 246 249 251 253 255 256 258 259 260 261 264 268 271 274 276 279 282 284 285 285 284 283 284 285 287 289
248 249 250 251 252 252 253 254 254 255 256 258 260 263 266 269 273 277 280 281 282 284 287 291 294 295 297 300 302 305 312 318 322 328 326 296 258 241 237 236 237 235 235 238 241 241 234 225 221 220 221 225 230 232 234 236 239 243 246 250 252 253 254 255 257 260 263 266 268 270 271 272 274 276 278 280 280 281 282 282 283 283 285 287 289
248 248 249 250 251 251 252 253 254 254 255 256 259 261 264 267 271 274 277 278 278 279 282 286 288 290 292 294 297 300 306 312 316 321 326 319 280 248 238 238 241 244 248 251 250 245 238 229 224 223 226 231 236 239 241 243 245 247 249 252 253 255 256 258 260 263 266 269 271 272 272 273 274 275 277 278 279 281 282 283 284 285 287 289 289
247 247 248 249 250 251 252 252 253 253 254 255 257 260 263 266 268 271 273 274 274 275 277 280 282 284 286 289 292 295 299 305 310 314 320 323 312 274 246 238 239 242 246 249 247 240 233 228 226 228 231 235 239 242 243 245 246 247 250 252 253 255 257 260 262 266 268 269 270 270 270 271 272 273 275 277 280 281 282 283 285 287 288 289 290
246 246 247 248 248 249 250 251 252 252 252 253 256 258 261 264 265 267 269 270 270 272 274 275 276 278 280 283 286 288 291 296 301 306 312 317 317 304 273 249 242 240 241 242 242 238 232 229 229 231 233 235 237 239 240 242 244 247 250 253 254 255 257 260 264 265 266 267 267 267 268 269 272 274 276 278 280 282 284 286 287 288 288 289 291
245 245 246 246 247 248 249 250 250 250 251 252 255 257 259 261 263 264 266 267 267 268 270 272 272 272 274 276 279 281 283 286 291 295 301 307 312 307 290 266 249 241 236 235 235 234 232 231 231 233 235 237 237 238 240 241 244 247 251 254 255 255 256 258 259 259 259 261 263 265 268 271 274 276 278 281 283 285 286 287 287 288 288 289 290
244 244 244 244 245 245 247 248 249 250 251 252 254 256 258 259 260 261 262 264 264 266 268 269 270 269 269 270 272 274 276 278 280 284 288 293 298 299 290 273 256 245 239 235 234 236 237 237 237 237 238 240 241 242 242 243 246 250 253 254 254 253 253 251 251 253 256 259 264 268 272 275 278 280 282 284 286 286 287 287 287 288 288 289 290
243 243 243 243 243 244 245 246 248 249 250 252 254 255 256 256 257 257 259 261 262 263 265 267 267 267 266 266 266 267 268 271 272 274 277 280 283 285 283 276 264 253 247 244 241 240 239 239 238 238 239 241 243 245 245 246 248 250 250 249 248 246 245 247 251 255 259 263 268 272 275 278 281 283 284 286 287 288 289 289 289 289 290 292 294
243 243 243 242 242 242 243 244 246 248 250 252 253 254 255 255 255 255 257 258 260 261 263 264 266 266 265 263 262 262 262 263 265 266 267 269 271 273 272 270 267 261 254 251 247 243 239 237 236 235 237 239 242 243 243 242 243 243 241 239 238 240 245 250 255 258 263 268 271 274 277 280 283 285 287 288 289 290 291 290 290 291 293 296 297
243 243 242 241 241 241 242 243 245 247 249 250 252 252 253 253 254 255 255 257 258 259 261 262 264 264 264 261 259 259 259 259 260 261 261 260 261 263 264 262 261 260 257 253 250 247 244 241 238 235 234 235 237 238 238 237 236 234 233 235 239 245 250 255 258 262 267 270 273 277 280 282 284 286 288 290 291 292 291 291 292 294 296 298 298
244 243 242 241 240 241 241 242 244 246 247 249 250 251 251 252 253 254 255 256 257 258 259 260 262 262 262 260 257 256 256 256 256 257 258 257 255 255 257 257 256 254 253 251 247 244 241 240 238 236 233 232 232 231 231 231 231 232 236 241 246 250 253 257 261 265 269 273 276 279 281 283 285 287 288 290 292 292 292 292 294 296 297 298 299
244 243 241 240 239 239 240 241 243 245 246 248 249 249 250 251 253 254 255 255 256 257 257 258 259 260 260 260 257 255 253 253 254 254 255 256 255 253 251 252 252 251 249 248 246 243 239 236 234 232 231 230 229 228 229 231 234 239 243 246 249 253 256 260 264 268 272 274 277 279 281 284 286 287 289 291 292 291 291 293 295 296 297 299 302
243 242 240 239 238 238 238 240 241 243 246 247 248 248 248 249 251 253 255 255 254 255 256 256 257 257 258 259 257 255 253 251 251 252 252 253 255 254 252 250 249 249 248 247 246 245 243 240 238 236 235 234 234 234 236 238 241 244 247 249 253 256 260 264 267 270 273 275 277 279 282 285 287 289 291 291 291 290 291 293 295 297 299 303 306
242 241 239 238 238 237 237 238 239 242 244 246 246 247 247 248 249 251 253 255 254 253 253 254 255 255 255 257 257 255 253 251 249 249 250 251 252 254 254 252 250 249 248 248 247 247 247 246 244 243 242 241 241 242 243 245 247 249 252 255 258 261 264 267 269 271 273 275 278 280 283 286 288 290 291 291 289 290 292 295 297 299 302 306 309
241 240 238 237 237 236 236 237 238 240 242 244 245 245 246 246 247 249 251 253 254 253 251 250 250 251 251 254 255 254 253 251 249 248 247 249 250 251 252 253 252 251 250 250 249 249 249 250 249 248 248 248 248 249 249 251 253 254 256 259 261 263 266 267 269 271 273 276 279 281 284 286 288 291 291 290 289 291 294 296 298 301 305 308 311
239 238 237 237 237 236 236 236 238 240 241 242 243 243 244 245 246 247 249 251 252 253 252 249 247 247 247 248 251 253 252 251 250 249 247 246 248 249 250 252 252 252 251 251 251 251 251 251 252 252 253 253 254 255 255 256 257 257 259 261 262 264 266 267 269 271 274 277 279 281 283 286 289 292 291 289 290 293 295 297 300 303 307 310 313
238 237 237 237 237 237 236 236 237 239 240 241 241 242 242 244 245 246 248 250 251 252 252 250 247 245 245 245 247 250 252 251 251 250 248 246 246 247 248 250 251 252 252 251 251 251 251 251 252 252 253 254 255 255 256 257 257 258 259 260 262 263 265 267 269 271 274 277 279 281 284 287 291 292 290 288 291 293 295 298 301 304 308 312 316
238 238 238 238 237 237 237 237 237 238 240 241 242 241 242 243 245 246 247 249 250 250 251 250 248 246 246 246 245 247 249 251 251 251 250 248 245 245 246 247 249 251 252 252 251 251 251 251 252 252 252 252 252 253 254 255 256 257 258 260 261 263 265 267 270 272 275 277 279 281 285 288 291 290 287 287 290 292 294 298 301 305 309 314 319
239 239 239 239 239 238 238 238 238 239 240 242 243 243 243 243 244 245 246 247 248 249 249 249 248 246 246 246 246 246 247 249 251 251 251 249 247 245 244 245 247 249 251 252 253 253 253 253 253 252 252 252 253 253 254 255 256 257 258 260 261 264 266 268 271 273 275 277 279 282 285 288 289 287 284 286 289 291 294 298 302 306 311 317 321
239 240 241 241 241 241 241 241 241 242 242 243 243 243 244 244 245 245 245 246 247 247 247 247 245 244 244 244 245 246 247 247 249 250 251 250 249 247 245 244 245 246 248 250 252 254 254 255 255 255 254 254 254 254 255 256 257 258 259 261 263 265 267 269 272 274 275 277 279 281 284 286 286 282 281 284 287 290 294 298 301 306 313 319 321
240 240 242 243 243 244 245 245 246 246 245 244 244 244 244 244 245 245 244 244 244 243 243 243 242 242 242 242 244 245 247 247 246 247 249 250 250 249 247 246 245 246 246 247 249 251 253 254 256 257 257 257 256 256 256 257 258 259 260 261 263 266 268 270 272 273 274 275 277 280 282 283 281 278 279 283 286 289 293 297 300 306 313 318 318
239 240 241 242 243 244 245 246 246 246 246 246 245 245 244 245 245 245 244 242 241 241 241 241 241 240 241 242 243 244 246 246 246 246 247 248 249 249 248 247 246 246 246 246 247 248 250 252 254 256 257 258 258 258 259 259 259 260 261 262 264 266 267 269 269 270 271 272 275 278 279 279 276 275 278 282 285 288 292 296 299 305 311 315 315
238 239 239 240 241 242 243 244 244 245 245 244 244 243 244 244 244 244 243 241 240 240 240 241 241 241 241 242 242 243 244 245 246 246 246 247 248 248 248 248 247 246 246 246 246 247 249 250 252 253 254 256 257 258 258 259 260 261 261 262 263 264 265 266 266 267 269 271 274 276 276 275 273 273 278 281 283 286 292 295 299 304 309 312 312
236 238 239 239 239 240 240 241 242 243 243 242 241 240 241 241 242 242 241 240 238 238 239 240 240 240 240 241 241 242 242 244 245 245 245 246 246 247 247 248 247 247 246 246 246 247 247 248 249 251 252 253 254 255 256 257 258 259 259 260 261 262 263 264 264 265 268 271 273 273 273 271 270 273 278 281 282 285 291 295 299 303 307 308 308
233 234 236 237 238 238 239 239 240 241 241 240 239 238 238 238 239 239 239 239 237 236 237 239 241 240 239 239 240 241 241 242 243 245 245 245 246 247 247 247 248 248 248 248 248 247 248 248 249 250 251 252 253 254 255 256 257 257 258 258 259 261 262 263 264 266 269 270 271 271 269 267 268 272 277 279 280 284 290 294 297 301 303 304 304
235 234 234 235 236 237 237 238 239 240 240 239 238 237 236 236 237 238 238 238 238 237 237 239 241 242 240 239 239 240 241 242 242 244 245 245 245 246 247 247 248 248 249 250 250 249 249 249 249 250 250 251 252 253 254 255 256 256 257 258 259 261 262 263 265 267 269 269 269 268 265 264 266 270 275 278 278 282 287 291 294 297 299 299 299
238 238 237 236 236 236 236 236 238 239 239 238 237 236 235 235 236 236 237 238 238 238 239 240 241 243 242 240 239 239 240 241 242 243 244 245 245 245 246 246 247 248 249 250 251 251 251 251 251 250 250 251 252 253 254 255 255 256 257 257 259 261 262 263 266 267 268 268 266 263 261 262 264 269 273 275 276 279 284 287 290 293 294 294 295
238 238 239 239 239 239 238 237 237 238 239 239 237 236 235 235 235 236 237 237 238 238 240 241 242 243 243 242 240 239 239 240 241 242 244 245 245 245 245 245 246 247 248 249 250 251 251 252 252 252 251 251 252 253 253 254 255 256 256 257 259 261 263 264 266 267 266 265 262 259 258 259 262 267 271 272 273 276 280 283 286 288 290 290 290
236 236 236 237 238 239 239 239 238 238 239 238 237 236 235 235 235 236 236 237 237 238 240 241 243 244 245 245 243 242 240 239 240 241 243 244 245 245 245 245 245 246 247 248 249 250 251 252 253 253 253 253 254 254 255 255 256 256 257 258 260 261 263 264 265 265 264 262 258 255 255 257 260 265 268 269 269 272 276 278 280 283 286 286 285
236 235 234 235 235 237 238 239 239 239 239 239 238 236 235 234 234 235 236 237 238 239 240 242 243 244 245 245 244 242 240 240 240 241 242 243 244 244 244 244 244 245 246 247 248 249 251 252 253 254 255 255 255 256 256 257 258 258 258 259 260 261 263 263 263 263 262 259 254 252 252 254 258 263 264 264 265 267 270 273 275 277 280 282 282
236 235 234 234 234 234 235 236 238 238 239 239 239 238 236 235 234 234 234 235 237 238 240 242 243 244 244 244 243 241 240 240 240 240 241 242 243 244 244 244 244 244 245 246 248 249 251 252 253 254 255 256 256 257 258 258 259 259 260 260 261 261 262 262 261 261 259 255 251 249 250 253 256 259 260 259 260 262 264 266 269 272 275 278 280
234 234 234 233 233 233 233 234 235 236 237 238 239 239 238 236 234 233 234 234 236 237 239 241 242 243 243 242 242 241 240 240 240 240 241 241 242 242 243 243 243 243 244 245 246 248 250 252 253 254 255 255 256 257 258 259 259 260 260 260 260 261 260 260 259 258 256 252 249 248 249 251 254 256 255 255 256 258 259 261 263 266 270 274 277
234 233 233 232 232 232 232 232 233 235 236 237 238 238 238 236 234 233 233 234 235 237 239 240 241 241 241 241 241 240 239 239 239 240 240 240 241 241 242 242 242 242 242 243 245 246 248 250 251 252 254 255 256 257 258 258 259 260 260 260 259 259 258 257 256 255 252 249 247 247 248 250 252 253 252 252 253 254 255 258 260 262 266 270 273
234 233 232 232 231 231 231 231 232 232 234 235 236 237 237 237 235 234 233 234 235 236 238 239 239 240 240 240 240 239 239 238 239 239 240 240 241 241 241 240 241 241 242 242 244 245 246 248 249 250 252 253 254 255 257 257 258 258 259 258 257 257 256 255 253 251 249 247 245 245 247 249 251 252 252 252 253 253 255 257 257 258 261 265 268
232 231 231 231 231 231 231 231 230 231 232 233 234 235 236 237 237 236 235 235 235 236 236 237 239 239 239 239 239 239 239 239 239 239 240 240 241 241 240 240 240 240 241 242 243 244 245 246 247 248 249 251 252 254 255 256 256 257 257 256 255 254 253 252 250 248 246 244 244 244 246 248 250 252 253 254 255 256 256 256 255 254 256 259 262
229 230 230 230 230 230 231 231 231 231 231 231 232 232 233 234 235 235 235 235 235 236 237 238 239 239 240 240 240 240 239 239 239 240 240 240 240 240 240 239 239 240 240 241 242 243 244 245 246 247 248 250 251 252 253 253 254 255 254 254 253 252 251 249 247 245 243 243 243 244 246 248 249 251 253 254 256 257 258 257 256 254 253 254 256
229 230 229 229 229 229 230 230 231 231 231 231 231 231 231 231 232 233 233 234 235 236 238 239 240 241 242 242 242 242 241 240 240 240 240 240 240 240 240 239 239 240 240 241 242 243 244 245 246 246 248 249 250 250 251 251 252 252 252 252 251 250 248 246 244 243 242 241 242 244 245 247 248 249 250 252 253 256 257 258 257 256 255 255 255
229 230 230 229 228 228 228 229 230 230 231 231 231 231 231 231 230 231 232 232 233 234 236 238 239 240 242 243 243 243 242 242 241 241 241 241 241 241 241 240 241 241 241 242 243 244 244 245 246 246 247 248 249 249 249 250 250 250 250 250 249 247 246 244 243 242 241 241 242 243 245 246 248 248 249 250 251 253 255 257 257 256 256 256 256
229 231 230 229 228 229 229 228 228 229 230 230 230 230 230 230 230 230 231 232 232 232 234 235 237 238 240 241 242 242 243 243 242 242 242 242 242 242 242 242 242 243 243 243 244 244 245 245 246 247 247 248 248 248 249 249 249 249 249 249 247 245 244 242 242 242 241 241 242 243 244 246 247 248 248 249 250 251 253 255 256 255 255 256 258
228 231 231 230 229 230 231 229 228 228 229 229 229 229 228 229 229 230 230 231 232 232 233 234 236 238 239 240 241 241 242 243 243 243 242 242 242 242 243 243 243 243 244 244 244 244 245 245 246 246 247 247 248 248 248 248 248 248 248 247 245 244 243 242 241 242 242 241 242 243 245 246 246 247 248 249 251 252 253 254 254 254 254 255 257
227 230 231 230 230 231 231 230 228 227 227 228 228 228 228 227 228 229 230 231 232 232 233 234 235 238 240 241 242 241 241 241 242 242 242 243 243 243 243 243 243 243 244 244 245 245 245 245 246 246 247 247 248 248 248 248 248 248 247 246 244 243 242 241 241 242 242 241 241 242 244 245 245 246 247 249 250 252 253 253 254 253 253 254 255
226 228 230 230 230 230 230 229 228 227 226 226 228 229 229 228 228 229 230 232 233 235 236 235 236 238 240 242 243 243 242 241 241 241 242 242 243 244 244 243 243 243 243 244 244 245 245 245 246 246 247 247 248 248 249 249 248 247 246 245 244 243 242 242 241 242 242 241 241 241 243 243 244 246 247 249 250 251 252 252 252 252 252 253 253
226 227 229 231 231 230 229 229 229 228 226 225 227 230 232 231 231 230 231 233 234 236 237 238 238 239 240 241 242 243 242 241 240 241 241 242 242 242 242 241 241 241 241 241 243 244 245 246 246 247 247 248 248 249 249 249 248 246 245 244 244 244 244 243 242 242 242 242 241 241 242 243 244 245 247 248 249 250 250 250 250 250 250 251 251
225 226 229 230 231 230 229 229 229 229 227 226 228 231 233 233 232 231 232 233 232 232 233 233 234 235 236 238 239 241 242 241 240 240 241 242 242 241 240 239 239 238 238 239 240 242 243 244 245 246 247 248 248 248 248 247 247 247 247 246 246 247 246 245 244 243 243 243 242 242 242 242 243 245 247 248 248 248 247 247 247 248 248 249 249
Height
5690 5691 5693 5695 5696 5698 5700 5701 5702 5702 5703 5703 5703 5703 5703 5703 5702 5701 5701 5699 5698 5697 5696 5695 5691 5688 5685 5680 5676 5670 5663 5657 5652 5645 5638 5632 5626 5619 5614 5614 5617 5620 5623 5627 5633 5639 5648 5656 5663 5669 5676 5682 5689 5694 5698 5702 5707 5711 5714 5717 5720 5723 5726 5729 5732 5735 5738 5739 5741 5742 5743 5744 5744 5745 5746 5746 5747 5747 5748 5749 5749 5749 5749 5749 5748
5684 5686 5688 5690 5691 5693 5694 5696 5697 5697 5698 5698 5698 5699 5698 5698 5697 5697 5696 5695 5694 5693 5692 5691 5688 5685 5682 5678 5674 5669 5663 5657 5652 5647 5641 5635 5630 5625 5622 5622 5623 5626 5629 5634 5639 5646 5653 5659 5665 5671 5677 5682 5688 5692 5696 5701 5705 5709 5712 5715 5718 5719 5722 5725 5728 5731 5734 5735 5737 5737 5739 5740 5740 5741 5741 5743 5744 5744 5744 5745 5745 5745 5745 5745 5744
5679 5680 5682 5684 5686 5688 5689 5690 5691 5692 5693 5693 5693 5694 5694 5693 5693 5692 5691 5690 5689 5689 5688 5687 5685 5682 5680 5677 5673 5669 5663 5658 5653 5649 5645 5641 5636 5633 5630 5630 5631 5633 5636 5641 5646 5651 5656 5662 5667 5672 5678 5683 5687 5691 5695 5699 5703 5707 5710 5712 5714 5716 5719 5722 5725 5728 5730 5731 5733 5733 5735 5736 5736 5737 5738 5739 5740 5740 5740 5740 5740 5741 5740 5740 5740
5673 5675 5677 5679 5681 5683 5683 5685 5686 5687 5687 5687 5688 5689 5689 5689 5688 5687 5687 5686 5685 5684 5684 5683 5682 5679 5677 5675 5672 5668 5663 5659 5655 5651 5648 5646 5645 5642 5640 5640 5641 5642 5644 5647 5651 5656 5660 5664 5669 5674 5679 5683 5687 5690 5694 5697 5701 5704 5707 5709 5712 5714 5717 5720 5722 5724 5726 5727 5729 5730 5731 5731 5733 5734 5734 5735 5736 5736 5736 5736 5736 5736 5735 5735 5734
5667 5669 5671 5673 5675 5677 5678 5679 5681 5681 5682 5682 5683 5684 5684 5684 5683 5683 5682 5681 5680 5680 5679 5679 5679 5677 5675 5673 5670 5668 5664 5659 5656 5653 5651 5650 5650 5650 5650 5649 5649 5650 5651 5652 5656 5660 5663 5667 5671 5675 5679 5682 5685 5689 5692 5695 5698 5701 5704 5707 5710 5712 5714 5716 5718 5720 5722 5723 5725 5726 5727 5728 5729 5730 5730 5731 5731 5732 5732 5732 5731 5731 5730 5729 5729
5662 5663 5666 5668 5670 5671 5672 5674 5675 5676 5677 5677 5678 5679 5679 5679 5679 5678 5678 5677 5676 5676 5675 5675 5675 5673 5672 5670 5668 5667 5664 5660 5657 5655 5653 5652 5652 5653 5654 5655 5655 5655 5656 5657 5660 5663 5665 5668 5671 5674 5678 5681 5684 5687 5690 5693 5696 5699 5702 5705 5707 5709 5711 5713 5714 5716 5718 5719 5721 5722 5723 5725 5725 5725 5726 5727 5727 5727 5727 5727 5726 5725 5724 5724 5724
5656 5658 5660 5662 5664 5665 5667 5668 5670 5671 5671 5672 5673 5673 5674 5674 5674 5674 5674 5673 5672 5672 5671 5671 5670 5670 5669 5668 5667 5665 5663 5661 5658 5656 5654 5653 5652 5653 5654 5657 5658 5659 5659 5661 5663 5665 5667 5668 5671 5674 5677 5680 5683 5686 5689 5691 5694 5697 5700 5702 5704 5706 5707 5709 5711 5712 5714 5715 5717 5718 5719 5720 5721 5721 5722 5723 5723 5723 5722 5722 5721 5720 5720 5719 5719
5649 5651 5654 5656 5658 5660 5661 5663 5664 5665 5666 5667 5667 5668 5669 5669 5670 5670 5669 5669 5669 5668 5667 5667 5667 5666 5665 5665 5664 5663 5662 5660 5658 5656 5654 5653 5652 5652 5653 5654 5657 5659 5660 5662 5663 5665 5667 5669 5671 5673 5676 5679 5682 5685 5687 5690 5692 5695 5697 5699 5701 5702 5704 5706 5707 5708 5709 5711 5712 5714 5715 5716 5717 5718 5718 5718 5719 5718 5717 5716 5716 5715 5715 5714 5714
5643 5645 5647 5649 5652 5654 5656 5657 5659 5660 5661 5661 5662 5663 5664 5664 5665 5665 5665 5665 5665 5664 5664 5663 5663 5663 5662 5662 5661 5660 5659 5658 5657 5655 5654 5653 5652 5652 5652 5653 5654 5656 5658 5659 5661 5663 5665 5668 5670 5673 5676 5678 5681 5683 5685 5688 5690 5692 5694 5696 5697 5699 5701 5702 5703 5704 5706 5707 5709 5710 5711 5712 5713 5713 5713 5713 5713 5713 5712 5712 5712 5711 5710 5710 5709
5636 5638 5640 5643 5645 5648 5650 5652 5653 5655 5655 5656 5657 5657 5658 5659 5660 5660 5660 5660 5661 5661 5660 5660 5660 5660 5660 5659 5659 5658 5657 5656 5655 5654 5653 5652 5652 5652 5652 5653 5654 5655 5656 5657 5659 5661 5663 5666 5668 5671 5674 5677 5679 5682 5684 5686 5688 5690 5692 5693 5695 5696 5698 5699 5700 5702 5703 5704 5705 5706 5708 5708 5709 5709 5709 5708 5708 5708 5708 5708 5708 5707 5706 5705 5704
5630 5631 5634 5637 5639 5642 5644 5646 5647 5649 5650 5651 5651 5652 5653 5654 5655 5655 5656 5656 5656 5657 5657 5657 5657 5657 5657 5656 5656 5656 5655 5654 5653 5652 5651 5651 5651 5651 5652 5653 5654 5655 5656 5657 5658 5660 5662 5664 5666 5669 5672 5675 5677 5680 5682 5684 5685 5687 5689 5691 5692 5693 5695 5696 5697 5699 5700 5701 5702 5703 5703 5704 5704 5704 5704 5704 5704 5704 5703 5704 5703 5703 5702 5700 5700
5623 5625 5627 5630 5633 5636 5638 5639 5641 5642 5644 5645 5646 5647 5648 5649 5650 5650 5651 5651 5652 5652 5653 5653 5653 5654 5654 5654 5653 5654 5654 5653 5652 5651 5650 5649 5649 5649 5650 5651 5653 5654 5655 5656 5657 5659 5661 5663 5665 5667 5669 5672 5674 5676 5678 5680 5682 5684 5686 5687 5689 5690 5692 5693 5694 5695 5696 5697 5698 5699 5699 5700 5700 5700 5700 5700 5700 5700 5699 5699 5699 5698 5697 5696 5694
5615 5618 5621 5624 5627 5629 5631 5633 5634 5636 5637 5639 5641 5642 5643 5643 5644 5645 5646 5647 5647 5648 5648 5649 5650 5651 5651 5651 5651 5651 5651 5651 5650 5650 5649 5649 5648 5648 5649 5650 5651 5652 5653 5654 5655 5657 5659 5660 5662 5664 5666 5668 5671 5672 5675 5677 5679 5681 5683 5684 5686 5687 5689 5690 5691 5692 5693 5693 5694 5695 5695 5696 5696 5696 5697 5696 5696 5696 5695 5695 5694 5693 5692 5691 5689
5608 5611 5614 5617 5620 5622 5624 5626 5628 5629 5632 5633 5635 5637 5637 5638 5639 5640 5641 5642 5642 5643 5644 5644 5645 5647 5648 5648 5648 5648 5649 5649 5649 5649 5648 5648 5648 5648 5648 5649 5650 5651 5652 5653 5655 5656 5658 5659 5660 5662 5664 5665 5667 5669 5671 5673 5675 5677 5679 5681 5683 5684 5685 5687 5687 5688 5689 5690 5691 5692 5692 5692 5692 5692 5692 5692 5692 5691 5691 5690 5689 5688 5687 5685 5683
5601 5604 5607 5610 5613 5615 5618 5620 5622 5624 5625 5627 5629 5631 5632 5633 5634 5634 5635 5636 5637 5638 5639 5640 5641 5642 5644 5645 5645 5646 5646 5646 5647 5647 5647 5647 5647 5648 5648 5649 5649 5650 5651 5652 5653 5655 5656 5657 5659 5660 5662 5663 5665 5666 5668 5670 5672 5674 5676 5678 5679 5681 5682 5683 5684 5685 5686 5687 5687 5688 5688 5688 5688 5688 5688 5688 5687 5686 5685 5684 5683 5682 5680 5679 5677
5593 5596 5600 5604 5606 5608 5610 5613 5615 5617 5619 5621 5623 5624 5625 5627 5628 5629 5630 5631 5632 5633 5634 5635 5636 5637 5639 5641 5641 5642 5643 5643 5644 5645 5645 5645 5646 5646 5647 5648 5648 5649 5649 5650 5651 5652 5653 5655 5656 5658 5659 5660 5662 5663 5665 5667 5669 5671 5673 5674 5676 5678 5679 5680 5681 5681 5682 5683 5684 5684 5684 5684 5684 5683 5683 5682 5681 5681 5680 5679 5677 5675 5674 5673 5671
5584 5588 5592 5596 5598 5601 5603 5606 5608 5611 5613 5615 5616 5618 5619 5621 5622 5623 5624 5625 5626 5627 5628 5629 5631 5633 5634 5636 5637 5638 5639 5640 5641 5642 5642 5643 5643 5644 5645 5646 5646 5647 5648 5648 5649 5650 5651 5652 5654 5655 5656 5658 5659 5661 5663 5664 5666 5668 5670 5671 5673 5674 5675 5676 5677 5678 5678 5679 5680 5680 5680 5680 5679 5679 5678 5677 5676 5675 5674 5673 5672 5670 5668 5667 5664
5576 5580 5584 5587 5590 5593 5596 5599 5601 5603 5606 5608 5609 5611 5613 5614 5616 5617 5618 5620 5621 5622 5623 5624 5626 5627 5629 5630 5632 5633 5634 5635 5637 5638 5639 5640 5640 5641 5642 5643 5644 5645 5646 5647 5647 5648 5649 5650 5651 5653 5654 5655 5657 5658 5660 5662 5664 5665 5667 5668 5669 5670 5671 5672 5673 5674 5675 5675 5675 5675 5675 5675 5675 5674 5673 5672 5671 5670 5669 5668 5666 5664 5663 5661 5658
5567 5571 5575 5578 5581 5585 5589 5592 5594 5596 5598 5600 5601 5604 5606 5608 5610 5611 5612 5614 5615 5616 5618 5619 5620 5622 5623 5625 5627 5628 5629 5631 5632 5633 5635 5636 5637 5638 5639 5640 5641 5642 5643 5644 5645 5646 5647 5648 5649 5650 5652 5653 5654 5656 5657 5659 5661 5662 5663 5664 5666 5666 5667 5668 5669 5670 5670 5671 5671 5671 5671 5670 5670 5669 5669 5667 5666 5665 5664 5663 5661 5659 5657 5655 5652
5558 5561 5564 5568 5572 5577 5581 5584 5587 5589 5590 5592 5594 5596 5599 5601 5603 5605 5606 5608 5609 5611 5612 5613 5615 5617 5618 5619 5621 5622 5624 5626 5627 5628 5630 5631 5632 5634 5635 5636 5637 5638 5640 5641 5642 5644 5645 5646 5647 5648 5649 5650 5651 5653 5655 5656 5657 5659 5659 5661 5661 5662 5663 5664 5665 5665 5666 5666 5666 5666 5666 5666 5665 5665 5664 5663 5661 5660 5659 5658 5656 5654 5651 5649 5646
5547 5550 5554 5558 5562 5568 5572 5576 5579 5581 5582 5583 5586 5589 5592 5595 5597 5598 5599 5600 5602 5605 5606 5608 5609 5611 5612 5613 5615 5616 5618 5620 5621 5623 5625 5626 5627 5629 5630 5632 5633 5634 5636 5637 5638 5640 5641 5642 5643 5644 5645 5647 5648 5650 5651 5653 5654 5654 5655 5656 5657 5658 5659 5659 5660 5660 5661 5661 5661 5661 5661 5661 5660 5660 5659 5657 5656 5655 5654 5653 5651 5648 5646 5643 5640
5536 5539 5544 5548 5552 5558 5563 5567 5570 5572 5572 5574 5577 5581 5584 5587 5589 5591 5592 5594 5595 5597 5600 5602 5604 5605 5606 5607 5608 5610 5612 5613 5615 5617 5619 5621 5622 5624 5625 5627 5628 5630 5631 5633 5634 5635 5636 5637 5639 5640 5641 5643 5644 5646 5647 5648 5649 5650 5650 5651 5652 5653 5654 5655 5655 5655 5656 5656 5656 5656 5656 5656 5655 5655 5653 5652 5651 5650 5649 5647 5645 5643 5640 5638 5635
5525 5529 5534 5539 5543 5548 5553 5557 5560 5562 5563 5566 5569 5573 5576 5579 5582 5584 5585 5587 5589 5590 5592 5595 5597 5599 5600 5601 5602 5604 5605 5607 5609 5611 5613 5615 5616 5618 5620 5621 5623 5625 5626 5628 5629 5630 5631 5632 5633 5635 5637 5638 5640 5641 5642 5643 5644 5645 5645 5646 5647 5648 5649 5649 5650 5650 5651 5651 5651 5651 5651 5651 5650 5649 5648 5647 5646 5645 5643 5642 5640 5637 5635 5632 5629
5515 5520 5525 5529 5534 5538 5543 5547 5550 5552 5555 5557 5561 5565 5568 5571 5574 5576 5578 5580 5582 5583 5585 5588 5591 5592 5594 5595 5597 5597 5599 5600 5602 5604 5606 5609 5610 5612 5614 5616 5617 5619 5621 5622 5624 5625 5626 5627 5628 5630 5632 5634 5635 5636 5637 5638 5639 5640 5641 5641 5642 5643 5644 5644 5645 5646 5646 5646 5646 5646 5645 5645 5644 5644 5643 5642 5641 5640 5639 5637 5635 5633 5630 5627 5624
5507 5512 5516 5520 5524 5528 5533 5537 5541 5544 5546 5549 5552 5556 5560 5563 5566 5569 5571 5573 5575 5576 5578 5581 5583 5585 5587 5589 5590 5591 5592 5594 5596 5598 5600 5602 5604 5606 5608 5610 5612 5613 5615 5617 5618 5620 5621 5622 5623 5625 5627 5628 5630 5631 5632 5633 5634 5635 5635 5636 5637 5638 5639 5639 5639 5640 5641 5641 5641 5640 5640 5639 5639 5638 5637 5637 5636 5635 5634 5633 5631 5629 5626 5623 5619
5498 5503 5506 5510 5514 5518 5523 5528 5532 5535 5538 5541 5544 5548 5551 5554 5557 5560 5563 5565 5567 5569 5571 5573 5576 5578 5580 5582 5583 5585 5586 5588 5589 5591 5593 5595 5598 5600 5602 5604 5606 5607 5609 5611 5612 5614 5615 5617 5618 5620 5621 5623 5624 5626 5627 5628 5629 5629 5630 5631 5631 5632 5633 5633 5634 5635 5635 5635 5635 5635 5634 5634 5634 5633 5632 5632 5631 5630 5629 5628 5626 5624 5621 5618 5615
5490 5494 5497 5501 5505 5509 5515 5519 5523 5527 5530 5533 5536 5539 5542 5546 5549 5552 5555 5558 5560 5562 5564 5566 5569 5571 5573 5575 5576 5578 5580 5581 5583 5584 5586 5589 5591 5593 5595 5597 5599 5601 5603 5604 5606 5607 5609 5610 5612 5614 5615 5617 5619 5620 5621 5622 5623 5624 5624 5625 5626 5627 5627 5628 5628 5629 5629 5630 5629 5629 5629 5629 5629 5628 5627 5627 5626 5626 5625 5623 5621 5619 5617 5614 5611
5482 5485 5489 5492 5496 5501 5506 5510 5514 5517 5521 5524 5528 5531 5534 5537 5540 5543 5547 5549 5552 5553 5555 5558 5560 5563 5565 5567 5569 5571 5573 5575 5576 5578 5580 5582 5584 5586 5588 5591 5593 5595 5596 5598 5599 5600 5602 5604 5606 5608 5609 5611 5613 5614 5615 5616 5617 5617 5618 5619 5620 5621 5621 5622 5622 5623 5624 5624 5624 5624 5624 5624 5623 5622 5622 5622 5621 5620 5620 5618 5617 5615 5613 5610 5608
5472 5475 5479 5483 5487 5492 5496 5500 5504 5508 5511 5515 5519 5522 5526 5529 5531 5534 5537 5540 5543 5545 5546 5549 5552 5555 5557 5560 5562 5565 5566 5568 5570 5572 5574 5576 5577 5579 5582 5584 5586 5588 5589 5591 5593 5594 5596 5597 5599 5601 5603 5604 5606 5607 5608 5609 5610 5611 5612 5613 5614 5615 5616 5616 5617 5618 5619 5619 5619 5619 5619 5618 5618 5617 5617 5617 5616 5615 5614 5613 5612 5610 5609 5607 5605
5462 5466 5470 5475 5479 5483 5486 5490 5494 5498 5502 5506 5510 5514 5517 5520 5523 5526 5529 5532 5535 5537 5539 5541 5545 5548 5551 5553 5555 5558 5559 5561 5564 5565 5567 5569 5571 5573 5575 5577 5579 5581 5583 5584 5586 5588 5590 5591 5593 5595 5596 5597 5599 5600 5601 5602 5603 5604 5606 5607 5609 5610 5610 5611 5612 5613 5613 5613 5613 5613 5613 5613 5612 5612 5612 5611 5611 5610 5609 5609 5607 5606 5605 5603 5602
5453 5458 5462 5466 5469 5473 5477 5481 5485 5489 5493 5497 5501 5505 5508 5511 5514 5517 5520 5523 5527 5530 5531 5533 5536 5540 5543 5546 5548 5550 5552 5555 5557 5558 5560 5562 5564 5566 5568 5569 5572 5574 5576 5578 5580 5582 5583 5585 5586 5588 5590 5591 5592 5593 5594 5595 5597 5598 5600 5602 5603 5604 5605 5605 5606 5607 5607 5607 5608 5608 5607 5607 5606 5606 5606 5606 5606 5605 5605 5604 5603 5602 5601 5600 5598
5445 5449 5452 5456 5460 5463 5467 5471 5476 5480 5484 5488 5492 5496 5499 5502 5505 5508 5511 5514 5518 5522 5524 5525 5528 5532 5535 5538 5540 5543 5545 5547 5549 5551 5553 5555 5556 5558 5560 5562 5565 5567 5569 5571 5573 5575 5576 5578 5580 5581 5583 5584 5585 5586 5587 5589 5590 5592 5594 5596 5597 5598 5598 5599 5600 5601 5601 5601 5602 5602 5601 5601 5601 5601 5601 5601 5601 5601 5600 5599 5599 5598 5597 5596 5595
5435 5439 5442 5446 5450 5454 5458 5462 5467 5471 5475 5479 5483 5487 5490 5493 5497 5499 5502 5506 5510 5513 5515 5517 5520 5523 5527 5530 5532 5535 5537 5539 5542 5544 5546 5547 5549 5551 5553 5555 5557 5560 5562 5564 5566 5568 5569 5571 5573 5574 5576 5577 5578 5579 5580 5582 5583 5585 5587 5589 5590 5591 5592 5593 5594 5594 5594 5595 5596 5596 5595 5595 5595 5595 5596 5596 5596 5596 5595 5595 5594 5594 5593 5592 5591
5425 5429 5433 5437 5441 5445 5449 5453 5457 5461 5465 5469 5473 5478 5481 5484 5488 5491 5494 5498 5502 5504 5507 5509 5511 5515 5518 5521 5524 5526 5528 5531 5534 5536 5538 5540 5542 5544 5546 5548 5550 5552 5555 5556 5558 5560 5562 5564 5565 5567 5568 5570 5571 5572 5573 5575 5576 5579 5581 5582 5583 5584 5585 5586 5587 5587 5588 5589 5590 5589 5589 5589 5589 5590 5590 5591 5591 5591 5591 5590 5590 5590 5589 5588 5588
5415 5420 5423 5427 5432 5436 5440 5444 5448 5452 5456 5460 5464 5468 5471 5474 5478 5482 5486 5490 5493 5495 5497 5500 5503 5506 5510 5512 5515 5517 5519 5522 5525 5528 5530 5532 5534 5536 5538 5540 5542 5545 5547 5549 5550 5552 5554 5556 5557 5559 5561 5562 5563 5565 5566 5567 5570 5572 5574 5575 5576 5577 5578 5579 5580 5581 5582 5583 5584 5583 5583 5583 5583 5584 5585 5585 5586 5586 5586 5585 5585 5585 5585 5585 5584
5405 5409 5414 5418 5422 5426 5430 5435 5439 5443 5447 5450 5454 5458 5461 5465 5470 5473 5477 5480 5483 5485 5488 5491 5494 5498 5501 5504 5507 5509 5511 5514 5517 5520 5522 5524 5527 5529 5531 5532 5534 5536 5539 5540 5542 5544 5546 5548 5549 5551 5553 5554 5556 5557 5559 5560 5562 5565 5566 5568 5569 5570 5571 5573 5574 5574 5576 5577 5577 5577 5576 5577 5578 5578 5579 5580 5580 5580 5581 5581 5581 5581 5581 5581 5580
5395 5400 5404 5408 5412 5416 5421 5425 5429 5433 5437 5441 5445 5449 5453 5457 5461 5464 5468 5471 5474 5477 5480 5483 5486 5490 5493 5496 5499 5501 5503 5506 5509 5511 5514 5516 5518 5521 5522 5524 5526 5528 5530 5532 5534 5536 5538 5540 5541 5543 5545 5546 5548 5549 5551 5553 5555 5557 5559 5561 5562 5563 5564 5566 5567 5568 5570 5571 5571 5570 5570 5571 5572 5573 5574 5574 5575 5575 5575 5576 5576 5577 5577 5576 5576
5387 5391 5395 5399 5403 5407 5411 5416 5420 5424 5428 5432 5436 5440 5444 5448 5452 5455 5458 5461 5465 5468 5471 5474 5478 5482 5485 5487 5490 5493 5495 5497 5500 5503 5505 5508 5510 5512 5513 5516 5518 5520 5522 5524 5526 5528 5530 5532 5533 5535 5537 5539 5540 5542 5544 5545 5548 5550 5552 5553 5555 5556 5558 5559 5560 5562 5563 5564 5564 5564 5564 5565 5566 5567 5568 5568 5569 5569 5570 5570 5571 5572 5572 5572 5572
5379 5383 5386 5390 5395 5399 5403 5407 5411 5415 5419 5423 5427 5431 5435 5439 5443 5446 5449 5453 5456 5460 5463 5466 5470 5473 5476 5478 5481 5484 5487 5489 5492 5494 5496 5499 5501 5503 5505 5508 5510 5512 5514 5516 5518 5520 5522 5523 5525 5527 5529 5531 5533 5534 5536 5538 5540 5542 5545 5546 5548 5549 5551 5552 5554 5555 5556 5557 5557 5558 5558 5559 5560 5561 5561 5562 5563 5563 5564 5565 5566 5567 5567 5567 5567
5371 5375 5378 5382 5387 5390 5394 5398 5402 5407 5411 5415 5418 5422 5426 5430 5434 5437 5440 5444 5448 5451 5454 5458 5461 5465 5467 5469 5472 5475 5478 5480 5482 5484 5487 5490 5492 5495 5497 5500 5502 5504 5506 5508 5510 5512 5514 5515 5517 5519 5521 5523 5525 5527 5529 5531 5533 5535 5537 5539 5541 5542 5544 5545 5547 5548 5549 5550 5551 5551 5552 5553 5554 5554 5555 5555 5557 5558 5559 5559 5561 5561 5562 5562 5562
5363 5367 5371 5375 5379 5382 5386 5390 5394 5398 5402 5406 5410 5413 5417 5421 5425 5428 5432 5436 5439 5443 5446 5449 5452 5455 5457 5459 5462 5465 5468 5471 5473 5476 5478 5481 5484 5486 5489 5491 5493 5495 5498 5500 5502 5504 5506 5508 5510 5512 5513 5515 5517 5519 5521 5523 5526 5528 5530 5532 5534 5535 5537 5538 5540 5541 5542 5543 5544 5545 5546 5547 5548 5548 5549 5550 5551 5552 5553 5554 5555 5556 5557 5557 5558
5356 5359 5363 5367 5371 5374 5378 5381 5385 5389 5393 5397 5401 5405 5408 5412 5416 5420 5423 5427 5431 5434 5437 5440 5442 5445 5448 5450 5453 5456 5460 5462 5465 5467 5470 5473 5475 5477 5480 5482 5484 5487 5489 5492 5494 5496 5498 5500 5502 5504 5506 5508 5510 5512 5514 5516 5518 5520 5523 5525 5526 5528 5530 5531 5532 5533 5535 5536 5537 5538 5540 5541 5542 5543 5544 5545 5546 5547 5548 5549 5550 5551 5551 5552 5553
5349 5352 5355 5359 5363 5366 5369 5373 5377 5381 5385 5389 5393 5396 5400 5404 5407 5411 5414 5418 5422 5425 5428 5431 5434 5437 5439 5441 5444 5448 5451 5454 5456 5459 5461 5464 5466 5468 5471 5473 5476 5478 5481 5483 5485 5488 5490 5492 5494 5496 5499 5501 5503 5505 5507 5509 5511 5513 5515 5517 5519 5521 5522 5524 5525 5527 5528 5529 5531 5532 5534 5535 5536 5538 5539 5540 5541 5542 5543 5544 5545 5546 5546 5547 5548
5342 5345 5348 5352 5355 5358 5362 5365 5369 5373 5376 5380 5384 5388 5392 5395 5398 5402 5406 5409 5413 5417 5420 5423 5425 5428 5430 5433 5436 5439 5442 5445 5447 5450 5452 5455 5457 5460 5462 5465 5467 5470 5472 5475 5477 5479 5482 5484 5486 5489 5491 5493 5495 5497 5499 5501 5503 5505 5507 5509 5511 5513 5515 5516 5518 5520 5521 5523 5524 5526 5528 5529 5530 5532 5533 5534 5536 5537 5537 5539 5540 5541 5542 5542 5543
5335 5338 5342 5345 5348 5351 5355 5358 5361 5364 5368 5372 5376 5379 5383 5387 5390 5394 5398 5401 5405 5408 5411 5414 5417 5419 5422 5425 5427 5430 5433 5436 5438 5441 5444 5446 5449 5451 5454 5457 5459 5462 5464 5466 5469 5471 5474 5476 5478 5480 5483 5484 5486 5489 5491 5493 5495 5497 5499 5501 5503 5505 5507 5509 5511 5513 5515 5517 5518 5520 5521 5523 5524 5526 5527 5528 5530 5531 5532 5533 5534 5536 5536 5537 5537
5328 5331 5335 5338 5341 5345 5348 5350 5353 5357 5360 5364 5367 5371 5374 5378 5382 5386 5389 5393 5396 5399 5402 5406 5408 5411 5414 5416 5418 5421 5424 5427 5430 5432 5435 5438 5440 5443 5446 5448 5451 5453 5455 5458 5460 5463 5465 5468 5470 5472 5474 5476 5478 5481 5483 5485 5487 5489 5491 5493 5495 5497 5499 5502 5504 5506 5508 5510 5511 5513 5515 5516 5518 5519 5521 5522 5523 5525 5526 5528 5529 5530 5531 5531 5532
5321 5324 5327 5331 5334 5338 5341 5343 5346 5350 5353 5356 5359 5363 5366 5370 5373 5377 5380 5383 5387 5390 5394 5397 5400 5403 5405 5407 5409 5412 5415 5418 5421 5424 5427 5429 5432 5434 5437 5440 5442 5445 5447 5450 5452 5454 5457 5459 5462 5464 5466 5468 5470 5472 5474 5477 5479 5481 5483 5486 5488 5490 5492 5494 5497 5499 5501 5503 5505 5507 5508 5510 5511 5513 5514 5516 5517 5519 5520 5522 5523 5525 5526 5526 5527
5314 5317 5320 5323 5327 5330 5334 5337 5339 5343 5346 5349 5352 5355 5359 5362 5365 5368 5371 5375 5378 5382 5385 5389 5392 5395 5397 5399 5401 5404 5406 5409 5412 5415 5418 5421 5424 5426 5429 5432 5434 5437 5439 5442 5444 5446 5449 5451 5453 5455 5457 5460 5462 5464 5466 5469 5471 5474 5476 5478 5480 5483 5485 5487 5490 5492 5494 5496 5498 5500 5502 5503 5505 5506 5508 5509 5511 5512 5514 5515 5517 5518 5520 5521 5522
5307 5310 5313 5316 5320 5323 5326 5329 5333 5336 5339 5342 5346 5349 5352 5355 5358 5361 5364 5368 5371 5374 5377 5381 5384 5386 5389 5390 5393 5395 5397 5401 5404 5407 5410 5413 5416 5418 5421 5424 5426 5429 5432 5434 5436 5438 5441 5443 5445 5448 5450 5452 5454 5456 5459 5461 5464 5466 5469 5471 5473 5476 5478 5480 5483 5485 5487 5489 5491 5493 5495 5497 5498 5500 5501 5503 5504 5506 5507 5509 5510 5512 5513 5515 5516
5299 5303 5306 5309 5313 5316 5319 5323 5326 5329 5332 5336 5339 5342 5346 5349 5352 5355 5358 5361 5364 5366 5369 5372 5375 5378 5380 5382 5384 5386 5389 5392 5395 5398 5401 5404 5407 5410 5413 5415 5418 5421 5423 5425 5428 5430 5433 5435 5438 5440 5442 5445 5448 5450 5452 5454 5457 5459 5461 5463 5466 5468 5471 5473 5476 5478 5480 5482 5484 5487 5489 5490 5492 5493 5495 5497 5498 5500 5501 5503 5504 5505 5507 5508 5510
5291 5295 5298 5302 5305 5309 5312 5316 5319 5322 5325 5328 5331 5335 5338 5341 5345 5348 5351 5353 5355 5357 5360 5363 5365 5368 5370 5372 5374 5377 5379 5383 5386 5389 5392 5395 5399 5402 5405 5407 5410 5412 5415 5417 5420 5422 5425 5427 5430 5433 5436 5439 5441 5443 5446 5448 5450 5452 5454 5457 5459 5461 5464 5466 5469 5471 5473 5475 5478 5480 5482 5484 5485 5487 5488 5490 5492 5494 5496 5497 5498 5499 5501 5502 5504